Weather History for Fort Leonard Wood, MO

Change the Weather History Date:

Sunday, March 3, 2013

  Actual Average Record
Temperature  
Mean Temperature 30 °F -  
Max Temperature 44 °F 47 °F 67 °F (2011)
Min Temperature 15 °F 31 °F 1 °F (2014)
Degree Days  
Heating Degree Days 36    
Moisture  
Dew Point 20 °F    
Average Humidity 67    
Maximum Humidity 96    
Minimum Humidity 33    
Precipitation  
Precipitation 0.00 in - - ()
Sea Level Pressure  
Sea Level Pressure 30.08 in    
Wind  
Wind Speed 4 mph (SE)    
Max Wind Speed 14 mph    
Max Gust Speed 21 mph    
Visibility 10 miles    
Events      
Averages and records for this station are not official NWS values.
T = Trace of Precipitation, MM = Missing Value Source: NWS Daily Summary

Daily Weather History Graph

Daily Weather History Graph

Search for Another Location

Airport:

Trip Planner

Search our weather history database for the weather conditions in past years. The results will help you decide how hot, cold, wet, or windy it might be!

Date:

Astronomy

Mar. 03, 2013 Rise Set
Actual Time 6:36 AM CST 6:04 PM CST
Civil Twilight 6:10 AM CST 6:30 PM CST
Nautical Twilight 5:40 AM CST 7:01 PM CST
Astronomical Twilight 5:09 AM CST 7:31 PM CST
Moon No Moon Rise 9:59 AM CST (3/3)
Length of Visible Light 12h 20m
Length of Day
11h 27m
Waning Gibbous, 63% of the Moon is Illuminated
Mar 3
Waning Gibbous
Mar 4
Last Quarter
Mar 11
New
Mar 19
First Quarter
Mar 27
Full

Hourly Weather History & Observations

Time (CST) Temp. Windchill Dew Point Humidity Pressure Visibility Wind Dir Wind Speed Gust Speed Precip Events Conditions
12:55 AM 19.0 °F - 17.1 °F 92% 30.23 in 10.0 mi Calm Calm - N/A   Clear
1:55 AM 18.1 °F - 17.2 °F 96% 30.23 in 10.0 mi Calm Calm - N/A   Clear
2:55 AM 18.1 °F - 16.9 °F 95% 30.21 in 10.0 mi Calm Calm - N/A   Overcast
3:55 AM 17.2 °F - 16.3 °F 96% 30.19 in 10.0 mi Calm Calm - N/A   Clear
4:55 AM 17.2 °F 11.9 °F 16.0 °F 95% 30.18 in 10.0 mi SE 3.5 mph - N/A   Clear
5:55 AM 15.8 °F - 14.9 °F 96% 30.18 in 10.0 mi Calm Calm - N/A   Clear
6:55 AM 17.1 °F 11.7 °F 15.6 °F 94% 30.18 in 10.0 mi SE 3.5 mph - N/A   Clear
7:55 AM 21.6 °F 16.8 °F 18.1 °F 87% 30.19 in 10.0 mi SE 3.5 mph - N/A   Clear
8:55 AM 27.5 °F 21.1 °F 21.6 °F 78% 30.17 in 10.0 mi SE 5.8 mph - N/A   Partly Cloudy
9:55 AM 31.5 °F 28.1 °F 21.9 °F 68% 30.16 in 10.0 mi Variable 3.5 mph - N/A   Overcast
10:55 AM 36.5 °F 32.7 °F 22.8 °F 58% 30.14 in 10.0 mi Variable 4.6 mph - N/A   Partly Cloudy
11:55 AM 40.3 °F 38.2 °F 20.1 °F 45% 30.11 in 10.0 mi SE 3.5 mph - N/A   Overcast
12:55 PM 43.0 °F 38.8 °F 18.3 °F 37% 30.08 in 10.0 mi South 6.9 mph - N/A   Overcast
1:55 PM 42.8 °F 38.6 °F 15.3 °F 33% 30.04 in 10.0 mi South 6.9 mph - N/A   Overcast
2:55 PM 43.9 °F 38.3 °F 21.4 °F 41% 30.01 in 10.0 mi SE 10.4 mph - N/A   Overcast
3:55 PM 44.4 °F 39.5 °F 22.1 °F 41% 30.00 in 10.0 mi SE 9.2 mph 16.1 mph N/A   Overcast
4:55 PM 43.9 °F 37.9 °F 23.7 °F 45% 29.97 in 10.0 mi SE 11.5 mph - N/A   Mostly Cloudy
5:55 PM 41.9 °F 36.3 °F 25.0 °F 51% 29.97 in 10.0 mi SE 9.2 mph - N/A   Mostly Cloudy
6:55 PM 40.6 °F 35.4 °F 21.9 °F 47% 29.99 in 10.0 mi SE 8.1 mph - N/A   Mostly Cloudy
7:55 PM 39.4 °F 32.3 °F 21.9 °F 50% 29.96 in 10.0 mi SE 11.5 mph - N/A   Mostly Cloudy
8:55 PM 38.8 °F 31.6 °F 23.4 °F 54% 29.96 in 10.0 mi SE 11.5 mph - N/A   Mostly Cloudy
9:55 PM 37.0 °F 28.5 °F 25.3 °F 63% 29.94 in 10.0 mi SE 13.8 mph 20.7 mph N/A   Scattered Clouds
10:55 PM 36.5 °F 28.7 °F 26.6 °F 67% 29.94 in 10.0 mi SE 11.5 mph - N/A   Mostly Cloudy
11:55 PM 36.5 °F 29.7 °F 27.3 °F 69% 29.93 in 10.0 mi SSE 9.2 mph - N/A   Overcast